Tracking 31027 objects as of 19-Jul-2025
HD Live streaming from Space Station
objects crossing your sky now

NOAA 17 DEB

Track NOAA 17 DEB now!
10-day predictions


NORAD ID: 48717
Int'l Code: 2002-032BB
Perigee: 729.7 km
Apogee: 739.7 km
Inclination: 98.7 °
Period: 99.4 minutes
Semi major axis: 7105 km
RCS: Unknown
Launch date: June 24, 2002
Source: United States (US)
Launch site: AIR FORCE WESTERN TEST RANGE (AFWTR)

Note: This is SATELLITE DEBRIS
Your satellite tracking list
KL-BETA B
Track 1 satellite(s)




NASA's NSSDC Master Catalog

Two Line Element Set (TLE):
1 48717U 02032BA  25199.89059170  .00005945  00000-0  15653-2 0  9994
2 48717  98.7477 174.9644 0007052 168.4965 191.6390 14.49407705226841
Source of the keplerian elements: AFSPC